{"data":{"norad_id":62754,"epoch":"2026-05-25T04:51:51.792192Z","epoch_age_seconds":51481,"freshness":"FRESH","line1":"1 62754U 25014V   26145.20268278  .00029641  00000+0  10817-2 0  9999","line2":"2 62754  43.0011  81.8943 0001601 259.0156 101.0516 15.27598167 74965","mean_motion":15.27598167,"eccentricity":0.0001601,"inclination_deg":43.0011,"raan_deg":81.8943,"arg_perigee_deg":259.0156,"mean_anomaly_deg":101.0516,"bstar":0.0010817,"rev_number":7496,"period_min":94.265627643948,"perigee_km":481.89623086036,"apogee_km":484.09316523008,"semimajor_km":6861.1316980452,"source":"CELESTRAK","updated_at":"2026-05-25T13:38:19.742278Z"}}